Starlink 30184

operational
NORAD ID: 57310 Int'l Des: 2023-096 Owner: SPXS Country: US Constellation: starlink
LEOCIRCULAR

Starlink 30184について

説明を読み込み中...

リアルタイム位置

3D地球を読み込み中...

次回通過

高度履歴

Altitude vs Time

uPlot chart will show altitude changes over time

軌道要素

1 57310U 23096W 25305.68173439 .00000323 00000-0 38988-4 0 9990
2 57310 43.0017 172.6889 0001016 268.8809 91.1917 15.02533359127760
Epoch: Nov 1, 2025 • Age: 54 hours

現在のステータス

高度 562.5 km
速度 7.58 km/s
衛星直下点 -18.29°S, 119.06°E
打ち上げ日 Jul 10, 2023
運用期間 2.3 years
タイプ internet

技術仕様

分類 Payload
質量 730.00 kg
乾燥質量 700.00 kg
総質量 730.00 kg
長さ 0.30 m
直径 4.10 m
スパン 29.00 m
形状 Box + pan
製造者 SPXS
バスタイプ Starlink V2M
フェーズステータス In Orbit
所有者/国 SPXS/US

大規模コンステレーション

Loading constellations...